sat.trackr.live / text

‹ back to catalog

STARLINK-4072

NORAD 52694 · 2022-053AQ

PAYLOAD ACTIVE UNKNOWN

§ Identity

Operator
Country
US
Launch date
2022-05-18
Launch site
AFETR
Launch vehicle
Mass (kg)
RCS (m²)

Purposes: comms

External: N2YO · Heavens-Above · Gunter

§ Orbital elements

Epoch: 2026-09-19T19:24:57.928320Z

Period
93.79 min
Inclination
53.1604°
Eccentricity
0.0001200
Mean motion
15.35395632 rev/d
Perigee alt
458.9 km
Apogee alt
460.6 km
Semi-major
6,837.9 km
B*
-1.0081e-6
RAAN
338.0870°
Arg perigee
71.9624°
Mean anomaly
288.1510°
Rev number
24,065

§ Raw data

STARLINK-40721 52694U 22053AQ  26262.80900380 -.00000416  00000+0 -10081-5 0  99912 52694  53.1604 338.0870 0001200  71.9624 288.1510 15.35395632240652

JSON: /api/v1/satellites/52694 · /tle

For live sub-satellite position, see the globe view (requires WebGL).

§ Visibility from observer

Set your observer location to see the next 7 days of passes ≥ 10°. The values pass through the URL so the page stays shareable.

No JS? Fill the form by hand. The geolocation button needs JavaScript.